Regional Weather Roundup
Issued by NWS

Home | Current Version | Previous Version | Text Only | Print | Product List | Glossary On
Versions: 1 2 3 4 5 6 7 8 9 10 11 12 13 14 15 16 17 18 19 20 21 22 23 24 25 26 27 28 29 30 31 32 33 34 35 36 37 38 39 40 41 42 43 44 45 46 47 48 49 50
000
ASUS46 KSEW 271010
RWRWA

WASHINGTON REGIONAL WEATHER ROUNDUP
NATIONAL WEATHER SERVICE SEATTLE WA
300 AM PDT WED AUG 27 2014

NOTE:"FAIR" INDICATES FEW OR NO CLOUDS BELOW 12,000 FEET WITH NO
SIGNIFICANT WEATHER AND/OR OBSTRUCTIONS TO VISIBILITY.

WAZ505-507>509-271100-
SEATTLE, TACOMA, EVERETT, AND VICINITY

CITY           SKY/WX    TMP DP  RH WIND       PRES   REMARKS
EVERETT        FAIR      65  56  72 NE3       30.02F
BOEING FIELD   FAIR      71  56  58 CALM      30.00S
RENTON         FAIR      66  60  81 CALM      30.00S
SEATAC AIRPORT FAIR      69  56  62 NE6       30.02R
JBLM-MCCHORD   FAIR      60  56  85 NW3       30.01S
PUYALLUP       NOT AVBL
JBLM-FT LEWIS  FAIR      65  58  79 SE1       30.01R
TACOMA NARROWS FAIR      63  54  72 CALM      30.01S
$$

WAZ001-503-506-510-514-515-271100-
NORTH INTERIOR

CITY           SKY/WX    TMP DP  RH WIND       PRES   REMARKS
BELLINGHAM     FAIR      64  58  80 S8        29.99R
FRIDAY HARBOR  FAIR      53  51  93 CALM      30.00S
EASTSOUND      FAIR      59  55  88 S3        29.98R
PORT ANGELES   FAIR      56  54  93 W6        30.00S
NAS WHIDBEY    FAIR      58  54  86 SW6       30.01S
BURLINGTON     CLEAR     61  57  88 S5        30.01S
$$

WAZ020-022-039-040-504-511-512-271100-
SOUTHWEST INTERIOR

CITY           SKY/WX    TMP DP  RH WIND       PRES   REMARKS
SHELTON        MOCLDY    57  55  93 W5        30.00S
OLYMPIA        FAIR      60  56  86 CALM      30.02R
CHEHALIS       FAIR      59  59 100 CALM      30.02R
KELSO          FAIR      63  55  77 N3        30.06R
VANCOUVER      FAIR      66  56  70 CALM      29.99R
SCAPPOOSE, OR  FAIR      64  56  75 CALM      29.98R
PORTLAND, OR   FAIR      70  58  65 CALM      30.00R
$$

WAZ021-516-517-271100-
WASHINGTON COAST

CITY           SKY/WX    TMP DP  RH WIND       PRES   REMARKS
FORKS          CLOUDY    57  56  96 CALM      30.04S FOG
HOQUIAM        CLOUDY    57  56  96 W10       30.04S
ASTORIA, OR    CLOUDY    57  55  93 W6        30.05R
$$

WAZ019-023-024-040-518-519-271100-
CASCADE MOUNTAINS AND COLUMBIA GORGE

CITY           SKY/WX    TMP DP  RH WIND       PRES   REMARKS
STAMPEDE PASS  NOT AVBL
TROUTDALE, OR  FAIR      65  56  72 CALM      29.98R
THE DALLES, OR FAIR      70  52  52 NW6       29.95S
$$

WAZ026-027-041>044-520-521-271100-
EAST SLOPES

CITY           SKY/WX    TMP DP  RH WIND       PRES   REMARKS
OMAK           FAIR      62  49  62 W6        29.98R
WENATCHEE      FAIR      73  53  49 NW8       29.96S
ELLENSBURG     FAIR      61  52  72 CALM      30.01S
YAKIMA         FAIR      61  56  83 W6        29.99R
$$

WAZ028-034-035-271100-
COLUMBIA BASIN

CITY           SKY/WX    TMP DP  RH WIND       PRES   REMARKS
EPHRATA        FAIR      65  46  50 N3        29.97R
MOSES LAKE     FAIR      61  48  62 N3        29.97S
PASCO          FAIR      57  54  89 NE3       29.95S
HERMISTON, OR  FAIR      57  46  66 SE5       29.96R
$$

WAZ036>038-271100-
NORTHEAST WASHINGTON

CITY           SKY/WX    TMP DP  RH WIND       PRES   REMARKS
SPOKANE GEIGER FAIR      63  42  46 SE7       30.04R
SPOKANE FELTS  FAIR      59  46  62 E3        30.04R
FAIRCHILD AFB  FAIR      61  43  52 SE2       30.04S
COEURDALENE,ID FAIR      55  46  71 NE5       30.04S
DEER PARK      FAIR      52  44  74 CALM      30.04R
$$

WAZ029>033-271100-
SOUTHEAST WASHINGTON

CITY           SKY/WX    TMP DP  RH WIND       PRES   REMARKS
PULLMAN        FAIR      53  38  56 CALM      30.07S
LEWISTON, ID   FAIR      64  45  49 SE5       30.02R
WALLA WALLA    FAIR      69  43  38 E7        29.99R
PENDLETON, OR  FAIR      63  43  48 SE9       29.99S
$$


USA.gov is the U.S. government's official web portal to all federal, state and local government web resources and services.